Location: Kumla
(59.1265°N, 15.1401°E)
Time: 06:11:25
(UTC+01:00)

Transit 4A - Pass Details

Date: 03 December 2023
Orbit: 870 x 973 km, 66.8° (Epoch: 02 March)

Event Time Altitude Azimuth Distance (km) Brightness Sun altitude
Exits shadow 07:09:24 - 278° (W) 2,695 9.7 -9.2°
Reaches altitude 10° 07:10:18 10° 270° (W) 2,621 9.7 -9.1°
Maximum altitude 07:11:07 10° 262° (W) 2,594 9.8 -9.0°
Drops below altitude 10° 07:11:55 10° 254° (WSW) 2,608 9.8 -8.9°
Sets 07:17:12 0° 215° (SW) 3,509 10.9 -8.3°
